Weather History for KCOD - April, 2014

Change the Weather History Date:

Thursday, April 3, 2014

  Actual Average Record
Temperature  
Mean Temperature 29 °F -  
Max Temperature 39 °F 50 °F 73 °F (1939)
Min Temperature 19 °F 26 °F -5 °F (1936)
Degree Days  
Heating Degree Days 36    
Moisture  
Dew Point 23 °F    
Average Humidity 74    
Maximum Humidity 100    
Minimum Humidity 52    
Precipitation  
Precipitation 0.21 in - - ()
Sea Level Pressure  
Sea Level Pressure 29.97 in    
Wind  
Wind Speed 5 mph (ESE)    
Max Wind Speed 14 mph    
Max Gust Speed -    
Visibility 9 miles    
Events      
Averages and records for this station are not official NWS values.
T = Trace of Precipitation, MM = Missing Value Source: NWS Daily Summary

Daily Weather History Graph

Daily Weather History Graph

Search for Another Location

Airport or City:

Trip Planner

Search our weather history database for the weather conditions in past years. The results will help you decide how hot, cold, wet, or windy it might be!

Date:

Astronomy

Apr. 03, 2014 Rise Set
Actual Time 6:53 AM MDT 7:46 PM MDT
Civil Twilight 6:23 AM MDT 8:15 PM MDT
Nautical Twilight 5:48 AM MDT 8:50 PM MDT
Astronomical Twilight 5:11 AM MDT 9:27 PM MDT
Moon 9:17 AM MDT (4/3) No Moon Set
Length of Visible Light 13h 51m
Length of Day
12h 52m
Waxing Crescent, 18% of the Moon is Illuminated
Apr 3
Waxing Crescent
Apr 7
First Quarter
Apr 15
Full
Apr 22
Last Quarter
Apr 29
New

Hourly Weather History & Observations

Time (MDT) Temp. Windchill Dew Point Humidity Pressure Visibility Wind Dir Wind Speed Gust Speed Precip Events Conditions
12:15 AM 26.6 °F 15.2 °F 21.2 °F 80% 29.87 in 10.0 mi SSW 13.8 mph - N/A   Mostly Cloudy
12:35 AM 28.4 °F 19.7 °F 24.8 °F 86% 29.88 in 10.0 mi SW 9.2 mph - N/A   Overcast
12:55 AM 26.6 °F 22.6 °F 23.0 °F 86% 29.88 in 10.0 mi West 3.5 mph - N/A   Mostly Cloudy
1:15 AM 21.2 °F - 17.6 °F 86% 29.89 in 10.0 mi Calm Calm - N/A   Clear
1:35 AM 19.4 °F - 17.6 °F 93% 29.90 in 10.0 mi Calm Calm - N/A   Clear
1:55 AM 21.2 °F - 19.4 °F 93% 29.91 in 10.0 mi Calm Calm - N/A   Scattered Clouds
2:15 AM 19.4 °F 12.8 °F 19.4 °F 100% 29.91 in 0.2 mi NNE 4.6 mph - N/A   Overcast
2:35 AM 19.4 °F - 17.6 °F 93% 29.91 in 0.2 mi Calm Calm - N/A   Overcast
2:55 AM 19.4 °F 14.3 °F 19.4 °F 100% 29.91 in 0.2 mi SW 3.5 mph - N/A   Overcast
3:15 AM 21.2 °F - 19.4 °F 93% 29.91 in 0.8 mi Calm Calm - N/A   Overcast
3:35 AM 21.2 °F - 21.2 °F 100% 29.92 in 4.0 mi Calm Calm - N/A   Overcast
3:55 AM 21.2 °F 13.6 °F 21.2 °F 100% 29.91 in 10.0 mi South 5.8 mph - N/A   Mostly Cloudy
4:15 AM 21.2 °F 13.6 °F 19.4 °F 93% 29.91 in 10.0 mi South 5.8 mph - N/A   Mostly Cloudy
4:35 AM 21.2 °F 16.4 °F 19.4 °F 93% 29.91 in 10.0 mi South 3.5 mph - N/A   Partly Cloudy
4:55 AM 23.0 °F 17.0 °F 21.2 °F 93% 29.91 in 10.0 mi SSW 4.6 mph - N/A   Scattered Clouds
5:15 AM 24.8 °F 16.9 °F 21.2 °F 86% 29.92 in 10.0 mi SSW 6.9 mph - N/A   Mostly Cloudy
5:35 AM 26.6 °F 21.2 °F 23.0 °F 86% 29.93 in 10.0 mi SW 4.6 mph - N/A   Overcast
5:55 AM 23.0 °F - 19.4 °F 86% 29.93 in 10.0 mi Calm Calm - N/A   Overcast
6:15 AM 21.2 °F - 19.4 °F 93% 29.94 in 10.0 mi Calm Calm - N/A   Overcast
6:35 AM 24.8 °F 19.1 °F 21.2 °F 86% 29.94 in 10.0 mi SSW 4.6 mph - N/A   Mostly Cloudy
6:55 AM 28.4 °F - 24.8 °F 86% 29.96 in 10.0 mi Calm Calm - N/A   Mostly Cloudy
7:15 AM 23.0 °F - 19.4 °F 86% 29.96 in 10.0 mi Calm Calm - N/A   Overcast
7:35 AM 24.8 °F - 21.2 °F 86% 29.97 in 10.0 mi Calm Calm - N/A   Scattered Clouds
7:55 AM 26.6 °F 20.0 °F 21.2 °F 80% 29.97 in 10.0 mi SSW 5.8 mph - N/A   Clear
8:15 AM 26.6 °F 18.2 °F 19.4 °F 74% 29.98 in 10.0 mi SW 8.1 mph - N/A   Clear
8:35 AM 28.4 °F 21.2 °F 19.4 °F 69% 29.98 in 10.0 mi SW 6.9 mph - N/A   Clear
8:55 AM 28.4 °F 22.2 °F 19.4 °F 69% 29.98 in 10.0 mi SSW 5.8 mph - N/A   Clear
9:15 AM 28.4 °F 22.2 °F 21.2 °F 74% 29.98 in 10.0 mi SSW 5.8 mph - N/A   Clear
9:35 AM 32.0 °F 24.8 °F 21.2 °F 64% 29.99 in 10.0 mi SW 8.1 mph - N/A   Clear
9:55 AM 32.0 °F - 21.2 °F 64% 29.99 in 10.0 mi Calm Calm - N/A   Clear
10:15 AM 30.2 °F - 23.0 °F 75% 30.00 in 10.0 mi Calm Calm - N/A   Clear
10:35 AM 33.8 °F - 23.0 °F 65% 30.00 in 10.0 mi Calm Calm - N/A   Clear
10:55 AM 33.8 °F - 23.0 °F 65% 30.01 in 10.0 mi Calm Calm - 0.01 in   Clear
11:15 AM 33.8 °F - 23.0 °F 65% 30.02 in 10.0 mi Calm Calm - 0.01 in   Clear
11:35 AM 35.6 °F 32.8 °F 21.2 °F 56% 30.02 in 10.0 mi SSE 3.5 mph - 0.03 in   Clear
11:55 AM 35.6 °F - 21.2 °F 56% 30.02 in 10.0 mi Calm Calm - 0.05 in   Clear
12:15 PM 35.6 °F 32.8 °F 21.2 °F 56% 30.02 in 10.0 mi ESE 3.5 mph - 0.02 in   Clear
12:35 PM 35.6 °F 32.8 °F 21.2 °F 56% 30.02 in 10.0 mi ESE 3.5 mph - 0.03 in   Clear
12:55 PM 35.6 °F 30.7 °F 21.2 °F 56% 30.02 in 10.0 mi NE 5.8 mph - 0.05 in   Clear
1:15 PM 35.6 °F 31.7 °F 23.0 °F 60% 30.02 in 10.0 mi NE 4.6 mph - N/A   Clear
1:35 PM 37.4 °F 34.9 °F 23.0 °F 56% 30.02 in 10.0 mi NE 3.5 mph - 0.03 in   Clear
1:55 PM 37.4 °F 32.8 °F 23.0 °F 56% 30.01 in 10.0 mi NE 5.8 mph - 0.03 in   Clear
2:15 PM 37.4 °F 32.8 °F 24.8 °F 60% 30.01 in 10.0 mi NE 5.8 mph - 0.02 in   Clear
2:35 PM 37.4 °F 32.8 °F 24.8 °F 60% 30.01 in 10.0 mi NE 5.8 mph - 0.03 in   Clear
2:55 PM 37.4 °F 33.8 °F 23.0 °F 56% 30.01 in 10.0 mi NE 4.6 mph - 0.04 in   Clear
3:15 PM 37.4 °F 33.8 °F 23.0 °F 56% 30.01 in 10.0 mi NE 4.6 mph - 0.01 in   Clear
3:35 PM 37.4 °F 34.9 °F 23.0 °F 56% 30.00 in 10.0 mi NE 3.5 mph - 0.01 in   Clear
3:55 PM 39.2 °F 37.0 °F 23.0 °F 52% 30.00 in 10.0 mi NNE 3.5 mph - 0.02 in   Clear
4:15 PM 37.4 °F 34.9 °F 23.0 °F 56% 30.00 in 10.0 mi East 3.5 mph - N/A   Clear
4:35 PM 39.2 °F 35.9 °F 24.8 °F 56% 30.00 in 10.0 mi NE 4.6 mph - N/A   Clear
4:55 PM 37.4 °F 33.8 °F 24.8 °F 60% 30.00 in 10.0 mi ENE 4.6 mph - N/A   Clear
5:15 PM 39.2 °F 37.0 °F 24.8 °F 56% 30.00 in 10.0 mi NE 3.5 mph - N/A   Clear
5:55 PM 39.2 °F 37.0 °F 26.6 °F 61% 30.00 in 10.0 mi NNE 3.5 mph - N/A   Clear
6:15 PM 39.2 °F 37.0 °F 26.6 °F 61% 30.00 in 10.0 mi NE 3.5 mph - N/A   Clear
6:35 PM 39.2 °F 37.0 °F 26.6 °F 61% 30.00 in 10.0 mi NNE 3.5 mph - N/A   Clear
6:55 PM 37.4 °F 34.9 °F 26.6 °F 65% 30.00 in 10.0 mi NE 3.5 mph - N/A   Clear
7:15 PM 37.4 °F 33.8 °F 26.6 °F 65% 30.01 in 10.0 mi NE 4.6 mph - N/A   Clear
7:35 PM 35.6 °F 30.7 °F 26.6 °F 70% 30.01 in 10.0 mi ENE 5.8 mph - N/A   Clear
7:55 PM 33.8 °F 29.6 °F 26.6 °F 75% 30.01 in 10.0 mi NE 4.6 mph - N/A   Clear
8:15 PM 33.8 °F 29.6 °F 26.6 °F 75% 30.01 in 10.0 mi ENE 4.6 mph - N/A   Clear
8:35 PM 33.8 °F 29.6 °F 24.8 °F 70% 30.01 in 10.0 mi NE 4.6 mph - N/A   Clear
9:55 PM 30.2 °F 25.4 °F 26.6 °F 86% 30.02 in 10.0 mi South 4.6 mph - N/A   Clear
10:15 PM 30.2 °F 23.4 °F 24.8 °F 80% 30.02 in 10.0 mi South 6.9 mph - N/A   Clear
10:35 PM 30.2 °F 24.3 °F 24.8 °F 80% 30.01 in 10.0 mi SSE 5.8 mph - N/A   Clear
10:55 PM 28.4 °F 20.4 °F 24.8 °F 86% 30.01 in 10.0 mi South 8.1 mph - N/A   Clear
11:15 PM 32.0 °F 23.6 °F 24.8 °F 75% 30.00 in 10.0 mi SE 10.4 mph - N/A   Clear
11:35 PM 30.2 °F - 24.8 °F 80% 30.00 in 10.0 mi Calm Calm - 0.01 in   Clear
11:55 PM 32.0 °F 24.8 °F 24.8 °F 75% 30.00 in 10.0 mi SW 8.1 mph - 0.01 in   Clear